Tinker AFB, OK

11:24 PM CDT on March 26, 2017 (GMT -0500)
Tinker Air Force Base

Weather History for KTIK - March, 2013

Change the Weather History Date:

Tuesday, March 5, 2013

  Actual Average Record
Temperature  
Mean Temperature 40 °F -  
Max Temperature 48 °F 54 °F 82 °F (2009)
Min Temperature 32 °F 32 °F 13 °F (2015)
Degree Days  
Heating Degree Days 24    
Moisture  
Dew Point 25 °F    
Average Humidity 58    
Maximum Humidity 93    
Minimum Humidity 31    
Precipitation  
Precipitation 0.00 in - - ()
Sea Level Pressure  
Sea Level Pressure 30.28 in    
Wind  
Wind Speed 23 mph (NNW)    
Max Wind Speed 33 mph    
Max Gust Speed 47 mph    
Visibility 10 miles    
Events Rain    
Averages and records for this station are not official NWS values.
T = Trace of Precipitation, MM = Missing Value Source: NWS Daily Summary

Daily Weather History Graph

Daily Weather History Graph

Search for Another Location

Airport or City:

Trip Planner

Search our weather history database for the weather conditions in past years. The results will help you decide how hot, cold, wet, or windy it might be!

Date:

Astronomy

Mar. 05, 2013 Rise Set
Actual Time 6:53 AM CST 6:28 PM CST
Civil Twilight 6:28 AM CST 6:54 PM CST
Nautical Twilight 5:58 AM CST 7:23 PM CST
Astronomical Twilight 5:29 AM CST 7:53 PM CST
Moon 1:57 AM CST (3/5) 12:18 PM CST (3/5)
Length of Visible Light 12h 26m
Length of Day
11h 35m
Last Quarter, 40% of the Moon is Illuminated
Mar 5
Last Quarter
Mar 11
New
Mar 19
First Quarter
Mar 27
Full
Apr 2
Last Quarter

Hourly Weather History & Observations

Time (CST) Temp. Windchill Dew Point Humidity Pressure Visibility Wind Dir Wind Speed Gust Speed Precip Events Conditions
12:23 AM 42.8 °F 32.1 °F 33.8 °F 70% 30.05 in 10.0 mi NNW 31.1 mph 39.1 mph N/A   Mostly Cloudy
12:36 AM 42.8 °F 31.8 °F 33.8 °F 70% 30.07 in 10.0 mi North 33.4 mph 41.4 mph N/A Rain Light Rain
12:58 AM 41.5 °F 30.8 °F 36.7 °F 83% 30.10 in 10.0 mi North 28.8 mph 40.3 mph N/A   Mostly Cloudy
1:28 AM 39.2 °F 27.6 °F 37.4 °F 93% 30.12 in 8.0 mi North 28.8 mph 47.2 mph N/A   Overcast
1:43 AM 39.2 °F 27.8 °F 35.6 °F 87% 30.12 in 10.0 mi North 27.6 mph 39.1 mph N/A Rain Light Rain
1:58 AM 38.3 °F 27.8 °F 35.4 °F 89% 30.14 in 10.0 mi North 21.9 mph 33.4 mph N/A Rain Light Rain
1:59 AM 39.2 °F 29.6 °F 35.6 °F 87% 30.12 in 10.0 mi North 19.6 mph 33.4 mph N/A   Scattered Clouds
2:52 AM 39.2 °F 29.6 °F 35.6 °F 87% 30.13 in 10.0 mi NNW 19.6 mph 27.6 mph N/A   Light Drizzle
2:58 AM 38.7 °F 28.0 °F 34.7 °F 86% 30.15 in 10.0 mi NNW 23.0 mph 27.6 mph N/A   Light Drizzle
3:14 AM 39.2 °F 30.2 °F 33.8 °F 81% 30.14 in 10.0 mi NNW 17.3 mph - N/A   Scattered Clouds
3:58 AM 39.7 °F 30.6 °F 33.8 °F 79% 30.16 in 10.0 mi NNW 18.4 mph 25.3 mph N/A   Scattered Clouds
4:58 AM 37.8 °F 25.4 °F 27.5 °F 67% 30.22 in 10.0 mi NNW 29.9 mph 41.4 mph N/A   Clear
5:58 AM 35.6 °F 24.5 °F 21.4 °F 56% 30.26 in 10.0 mi NNW 20.7 mph - N/A   Clear
6:58 AM 33.8 °F 23.2 °F 19.6 °F 56% 30.31 in 10.0 mi NW 17.3 mph - N/A   Clear
7:58 AM 33.6 °F 23.3 °F 19.6 °F 56% 30.35 in 10.0 mi NW 16.1 mph 24.2 mph N/A   Clear
8:58 AM 36.0 °F 24.4 °F 19.0 °F 50% 30.38 in 10.0 mi NNW 23.0 mph 31.1 mph N/A   Clear
9:58 AM 38.3 °F 28.1 °F 16.5 °F 41% 30.38 in 10.0 mi NNW 20.7 mph 31.1 mph N/A   Clear
10:58 AM 41.5 °F 30.8 °F 16.2 °F 36% 30.37 in 10.0 mi NW 28.8 mph 38.0 mph N/A   Clear
11:58 AM 43.3 °F 34.7 °F 16.2 °F 33% 30.39 in 10.0 mi NW 20.7 mph 31.1 mph N/A   Clear
12:58 PM 44.8 °F 36.9 °F 18.5 °F 35% 30.38 in 10.0 mi NW 19.6 mph 28.8 mph N/A   Clear
1:58 PM 46.4 °F 38.5 °F 18.3 °F 33% 30.35 in 10.0 mi NW 21.9 mph 27.6 mph N/A   Clear
2:58 PM 48.4 °F - 19.0 °F 31% 30.34 in 10.0 mi NNW 21.9 mph - N/A   Clear
3:46 PM 48.2 °F - 19.4 °F 32% 30.30 in 10.0 mi WNW 16.1 mph 23.0 mph N/A   Clear
3:58 PM 48.6 °F - 19.0 °F 31% 30.34 in 10.0 mi NNW 17.3 mph 26.5 mph N/A   Clear
4:58 PM 48.2 °F - 19.2 °F 32% 30.35 in 10.0 mi NW 16.1 mph - N/A   Clear
5:58 PM 45.7 °F 38.6 °F 20.5 °F 37% 30.35 in 10.0 mi NW 17.3 mph - N/A   Clear
6:58 PM 42.4 °F 37.0 °F 21.6 °F 44% 30.38 in 10.0 mi NW 9.2 mph - N/A   Clear
7:58 PM 40.5 °F 34.1 °F 21.9 °F 48% 30.39 in 10.0 mi NW 10.4 mph - N/A   Clear
8:58 PM 39.0 °F 32.3 °F 22.6 °F 52% 30.41 in 10.0 mi NW 10.4 mph - N/A   Clear
9:58 PM 36.7 °F 29.9 °F 22.5 °F 56% 30.41 in 10.0 mi North 9.2 mph - N/A   Clear
10:58 PM 36.5 °F 30.3 °F 22.3 °F 56% 30.43 in 10.0 mi NNW 8.1 mph - N/A   Clear
11:58 PM 32.7 °F 25.7 °F 21.2 °F 63% 30.43 in 10.0 mi NNW 8.1 mph - N/A   Clear